Weather History for Andalusia, AL

Change the Weather History Date:

Wednesday, January 9, 2013

  Actual Average (KCEW) Record (KCEW)
Temperature  
Mean Temperature 65 °F -  
Max Temperature 70 °F 59 °F 78 °F (1949)
Min Temperature 60 °F 37 °F 20 °F (1976)
Growing Degree Days 15 (Base 50)    
Moisture  
Dew Point 58 °F    
Average Humidity 78    
Maximum Humidity 88    
Minimum Humidity 68    
Precipitation  
Precipitation 0.02 in - - ()
Sea Level Pressure  
Sea Level Pressure 30.27 in    
Wind  
Wind Speed 8 mph (ESE)    
Max Wind Speed 12 mph    
Max Gust Speed -    
Visibility 7 miles    
Events Rain    
Averages and records for this station are not official NWS values.
T = Trace of Precipitation, MM = Missing Value Source: NWS Daily Summary

Daily Weather History Graph

Daily Weather History Graph

Search for Another Location

Airport:

Trip Planner

Search our weather history database for the weather conditions in past years. The results will help you decide how hot, cold, wet, or windy it might be!

Date:

Astronomy

Jan. 09, 2013 Rise Set
Actual Time 6:45 AM CST 5:00 PM CST
Civil Twilight 6:19 AM CST 5:26 PM CST
Nautical Twilight 5:49 AM CST 5:56 PM CST
Astronomical Twilight 5:19 AM CST 6:26 PM CST
Moon 4:23 AM CST (1/9) 3:01 PM CST (1/9)
Length of Visible Light 11h 07m
Length of Day
10h 15m
Waning Crescent, 6% of the Moon is Illuminated
Jan 9
Waning Crescent
Jan 11
New
Jan 18
First Quarter
Jan 26
Full
Feb 3
Last Quarter

Hourly Weather History & Observations

Time (CST) Temp. Dew Point Humidity Pressure Visibility Wind Dir Wind Speed Gust Speed Precip Events Conditions
12:10 AM 60.8 °F 51.8 °F 72% 30.23 in 10.0 mi ESE 5.8 mph - N/A   Scattered Clouds
12:28 AM 62.6 °F 51.8 °F 68% 30.22 in 10.0 mi ESE 6.9 mph - N/A   Mostly Cloudy
12:48 AM 62.6 °F 51.8 °F 68% 30.22 in 10.0 mi ESE 6.9 mph - N/A   Overcast
12:56 AM 62.1 °F 53.1 °F 72% 30.21 in 10.0 mi ESE 8.1 mph - N/A   Overcast
1:56 AM 62.1 °F 54.0 °F 75% 30.21 in 9.0 mi ESE 8.1 mph - N/A   Overcast
2:56 AM 63.0 °F 55.0 °F 75% 30.22 in 8.0 mi ESE 9.2 mph - N/A   Overcast
3:56 AM 63.0 °F 55.9 °F 78% 30.23 in 7.0 mi ESE 6.9 mph - N/A   Overcast
4:56 AM 62.1 °F 55.0 °F 78% 30.23 in 7.0 mi ESE 6.9 mph - N/A   Overcast
5:56 AM 62.1 °F 55.0 °F 78% 30.25 in 7.0 mi ESE 6.9 mph - N/A   Overcast
6:56 AM 62.1 °F 55.0 °F 78% 30.26 in 8.0 mi ESE 10.4 mph - N/A   Overcast
7:56 AM 62.1 °F 55.0 °F 78% 30.29 in 7.0 mi ESE 9.2 mph - N/A   Overcast
8:07 AM 62.6 °F 55.4 °F 77% 30.30 in 7.0 mi ESE 11.5 mph - N/A   Overcast
8:56 AM 63.0 °F 55.0 °F 75% 30.30 in 7.0 mi ESE 9.2 mph - N/A   Overcast
9:56 AM 64.9 °F 55.9 °F 73% 30.30 in 7.0 mi ESE 9.2 mph - N/A   Overcast
10:56 AM 66.0 °F 57.0 °F 73% 30.27 in 7.0 mi ESE 10.4 mph - N/A   Overcast
11:56 AM 68.0 °F 57.9 °F 70% 30.25 in 7.0 mi SE 11.5 mph - N/A   Overcast
12:56 PM 70.0 °F 59.0 °F 68% 30.24 in 7.0 mi SE 9.2 mph - N/A   Overcast
1:56 PM 70.0 °F 59.0 °F 68% 30.24 in 8.0 mi SSE 6.9 mph - N/A   Overcast
2:56 PM 70.0 °F 60.1 °F 71% 30.23 in 7.0 mi SE 6.9 mph - N/A   Overcast
3:56 PM 70.0 °F 60.1 °F 71% 30.23 in 7.0 mi ESE 9.2 mph - N/A   Overcast
4:56 PM 69.1 °F 61.0 °F 75% 30.25 in 7.0 mi East 8.1 mph - N/A   Overcast
5:56 PM 68.0 °F 61.0 °F 78% 30.27 in 7.0 mi ESE 9.2 mph - N/A   Overcast
6:16 PM 66.2 °F 60.8 °F 83% 30.28 in 6.0 mi ESE 9.2 mph - N/A   Haze
6:56 PM 66.9 °F 61.0 °F 81% 30.28 in 4.0 mi ESE 6.9 mph - N/A   Haze
7:48 PM 66.2 °F 60.8 °F 83% 30.30 in 5.0 mi ESE 9.2 mph - N/A   Haze
7:56 PM 66.0 °F 61.0 °F 84% 30.29 in 5.0 mi ESE 10.4 mph - N/A   Haze
8:05 PM 66.2 °F 60.8 °F 83% 30.29 in 5.0 mi ESE 9.2 mph - N/A   Haze
8:24 PM 66.2 °F 60.8 °F 83% 30.28 in 5.0 mi ESE 10.4 mph - N/A   Haze
8:56 PM 64.9 °F 60.1 °F 84% 30.29 in 5.0 mi ESE 6.9 mph - N/A   Haze
9:56 PM 66.0 °F 60.1 °F 81% 30.30 in 6.0 mi ESE 6.9 mph - N/A   Haze
10:10 PM 66.2 °F 60.8 °F 83% 30.30 in 6.0 mi East 5.8 mph - N/A   Haze
10:51 PM 64.4 °F 60.8 °F 88% 30.31 in 4.0 mi SSE 4.6 mph - 0.02 in Rain Light Rain
10:56 PM 64.9 °F 60.1 °F 84% 30.30 in 5.0 mi SSE 4.6 mph - 0.02 in Rain Light Rain
11:06 PM 64.4 °F 60.8 °F 88% 30.30 in 5.0 mi SE 9.2 mph - 0.00 in   Haze
11:13 PM 64.4 °F 60.8 °F 88% 30.30 in 5.0 mi ESE 8.1 mph - 0.00 in   Haze
11:56 PM 64.9 °F 60.1 °F 84% 30.29 in 4.0 mi SE 6.9 mph - 0.00 in   Haze